Location: Holyhead Bay
(53.3667°N, 4.6667°W)
Time: 09:38:16
(UTC+00:00)

Cosmos 2360 Rocket - Pass Details

Date: 17 April 2021
Orbit: 833 x 845 km, 71.0° (Epoch: 08 May)

Event Time Altitude Azimuth Distance (km) Brightness Sun altitude
Rises 20:47:43 0° 320° (NW) 3,415 7.1 -11.9°
Reaches altitude 10° 20:50:44 10° 305° (NW) 2,473 6.2 -12.2°
Maximum altitude 20:54:49 21° 259° (W) 1,819 4.5 -12.7°
Drops below altitude 10° 20:58:53 10° 213° (SSW) 2,455 4.5 -13.2°
Sets 21:01:52 0° 197° (SSW) 3,382 5.1 -13.5°
